Location: Dappach
(48.9767°N, 9.6998°E)
Time: 20:49:41
(UTC+00:00)

COSMOS 2428 - Pass Details

Date: 17 August 2024
Orbit: 842 x 857 km, 70.9° (Epoch: 09 September)

Event Time Altitude Azimuth Distance (km) Brightness Sun altitude
Exits shadow 02:28:30 - 278° (W) 2,626 4.9 -15.8°
Reaches altitude 10° 02:29:06 10° 283° (WNW) 2,481 4.8 -15.7°
Maximum altitude 02:32:51 18° 324° (NW) 2,000 4.7 -15.3°
Drops below altitude 10° 02:36:37 10° 6° (N) 2,495 5.8 -14.8°
Sets 02:39:59 0° 25° (NNE) 3,437 7.2 -14.4°
